Tracking 30516 objects as of 20-May-2025
HD Live streaming from Space Station
objects crossing your sky now

SJ-23

Track SJ-23 now!


NORAD ID: 55131
Int'l Code: 2023-002A
Perigee: 35,838.4 km
Apogee: 35,847.0 km
Inclination: 2.7 °
Period: 1,438.6 minutes
Semi major axis: 42213 km
RCS: Unknown
Launch date: January 8, 2023
Source: People's Republic of China (PRC)
Launch site: Wenchang Satellite Launch Center (WSC)
Your satellite tracking list
Your tracking list is empty




NASA's NSSDC Master Catalog

Two Line Element Set (TLE):
1 55131U 23002A   25140.63379703 -.00000349  00000-0  00000-0 0  9999
2 55131   2.7066  83.3465 0001020 110.1758  36.4774  1.00097448  8577
Source of the keplerian elements: AFSPC